Temp
12 12 12 12 12 12 13 13 13 13 12 11 10 10 10 10 10 10 10 10 10 10 10 10 11 11 11 12 12 15 16 16 16 15 15 15 15 15 15 16 17 18 19 21 22 22 22
12 12 11 12 12 12 12 13 13 13 12 11 11 10 10 10 10 10 10 10 10 10 10 11 10 11 11 11 14 15 15 16 16 15 15 15 15 16 16 16 17 19 19 20 21 21 22
11 12 11 11 12 12 12 12 12 13 13 12 11 10 10 10 10 10 10 10 10 10 10 10 10 10 11 11 15 15 15 16 16 16 16 16 16 16 17 16 17 17 17 19 19 20 21
10 11 12 11 11 12 12 12 12 13 12 12 11 10 10 10 10 10 10 10 10 10 10 10 10 10 10 13 13 14 14 15 16 16 16 16 16 16 16 17 16 16 17 16 19 20 21
10 10 10 11 11 11 12 12 12 12 12 12 12 11 11 11 10 10 10 10 10 10 10 10 10 10 10 14 12 13 14 14 15 16 16 16 16 15 15 15 13 14 14 15 17 20 20
9 10 10 10 11 11 11 12 12 12 12 12 12 11 11 11 11 10 10 10 10 10 10 10 11 11 12 13 14 13 14 14 15 15 15 14 13 12 12 13 14 15 14 15 15 19 19
8 8 9 9 10 11 11 11 12 12 12 12 12 11 11 11 11 10 10 10 9 9 9 11 11 12 15 15 14 14 14 14 14 13 13 13 11 11 12 13 14 14 14 14 17 19 19
8 8 8 9 9 10 10 11 11 12 12 12 12 11 11 10 10 10 9 9 11 10 10 11 11 12 14 15 13 14 15 12 12 12 12 11 11 13 14 14 14 14 13 13 16 18 18
7 8 8 8 8 8 9 10 11 12 12 12 12 11 11 10 10 9 9 9 10 10 10 11 11 11 12 13 13 13 14 13 12 11 11 11 13 14 14 13 13 13 13 13 15 17 18
7 7 7 7 8 8 8 9 10 11 12 12 12 11 10 10 9 9 9 10 9 9 9 10 10 11 12 12 11 14 15 14 13 11 12 11 13 13 13 13 14 13 15 15 16 16 16
6 7 7 7 7 8 8 8 9 10 11 12 12 11 10 10 11 9 10 10 10 9 10 10 10 12 12 10 11 12 14 13 11 12 11 11 12 12 12 13 14 13 15 15 15 15 15
6 6 6 7 7 7 7 8 8 10 10 12 11 11 10 10 10 10 10 9 10 10 9 11 10 10 10 10 12 12 12 13 12 11 11 11 14 13 13 14 14 14 13 13 14 15 14
6 6 6 6 7 7 7 8 8 9 10 11 11 10 9 9 9 9 9 9 9 10 13 11 10 10 10 11 11 11 10 10 10 10 10 10 11 12 12 11 12 12 12 11 13 13 15
6 6 6 6 6 7 7 7 7 9 10 10 11 10 9 9 10 10 10 9 10 12 11 11 11 11 10 11 10 10 10 10 10 9 10 9 9 11 11 12 12 11 12 13 12 16 17
5 5 6 6 5 6 7 8 7 9 10 10 10 10 9 9 9 10 9 9 10 11 12 11 10 10 10 10 11 10 10 10 11 10 9 9 10 13 13 13 13 11 11 14 13 14 16
6 6 6 5 5 6 7 7 6 9 10 10 10 10 10 9 9 8 9 10 10 12 11 10 11 10 11 11 10 10 10 11 12 12 12 11 10 13 12 12 12 13 15 12 11 15 16
6 6 6 5 5 6 6 6 7 9 10 10 10 10 9 8 8 9 9 10 11 13 11 10 10 11 11 11 11 11 12 13 13 13 12 11 9 12 11 11 12 12 11 15 14 14 17
6 6 6 5 5 5 6 6 7 8 10 10 9 11 9 8 10 9 9 11 11 11 10 10 10 11 11 12 11 11 12 13 15 15 12 10 10 11 12 13 15 15 13 15 14 15 17
6 6 6 6 5 5 6 6 6 7 9 9 10 10 9 10 10 9 10 10 10 10 10 10 11 11 12 13 11 12 13 15 14 13 11 10 10 11 13 13 14 14 14 14 13 15 18
5 5 6 6 5 5 5 6 6 7 9 10 10 11 10 10 10 11 10 9 9 9 10 11 12 12 12 13 13 13 14 15 15 14 13 11 11 12 14 15 15 15 14 13 13 16 18
5 5 5 6 5 5 5 5 6 7 10 11 10 11 11 10 10 11 11 10 9 9 10 11 11 12 12 13 15 14 14 15 15 14 12 11 11 12 12 13 15 16 16 15 16 17 18
5 5 5 5 5 5 5 5 6 6 9 10 9 10 10 10 11 10 10 10 10 10 11 12 11 13 13 12 15 14 15 15 15 14 11 11 11 13 16 17 16 16 17 18 17 19 19
5 5 5 5 5 5 5 5 5 6 8 9 9 9 11 11 11 11 11 11 10 10 11 12 12 13 12 14 16 15 15 16 16 15 14 13 13 15 16 17 17 16 17 17 18 19 19
5 5 5 5 5 5 5 5 6 6 8 10 10 10 10 12 12 12 12 11 11 11 11 13 12 12 14 14 15 15 15 14 14 14 15 14 14 16 16 16 16 18 18 18 18 19 18
4 5 5 5 5 5 5 5 5 6 6 8 10 10 10 11 12 13 12 12 11 11 11 11 13 12 11 13 14 14 13 14 13 14 14 15 14 16 15 15 17 18 18 19 18 18 18
4 5 5 5 5 5 5 5 5 6 7 8 10 10 9 11 11 12 12 12 11 11 10 10 10 11 13 13 14 13 14 14 14 14 14 16 16 15 12 13 16 18 18 17 18 17 16
4 4 5 5 5 5 5 5 5 6 6 8 9 10 9 10 11 12 12 12 11 10 10 9 10 12 13 13 14 13 14 14 14 14 13 14 14 13 14 14 14 17 17 17 19 17 14
4 4 4 4 4 4 5 5 5 6 6 8 9 9 10 9 11 11 12 11 9 10 10 10 11 11 12 12 13 14 14 13 13 15 13 14 14 14 13 14 13 17 17 19 15 15 12
4 4 4 4 4 4 5 5 5 6 6 8 8 9 9 9 10 10 11 11 11 11 10 8 10 12 12 12 12 13 13 13 12 14 13 14 14 14 14 15 15 14 15 15 14 13 12
Height
790 787 785 784 783 782 783 781 780 780 780 780 781 782 783 783 783 783 783 783 785 785 784 785 786 786 789 790 782 778 777 778 778 780 785 789 791 790 793 787 783 780 776 769 765 764 760
785 783 781 779 778 777 777 777 776 776 776 776 777 779 780 780 780 782 782 783 783 784 783 783 784 786 788 789 776 777 776 778 778 780 783 786 786 784 786 784 783 772 769 765 761 760 758
779 776 775 774 773 772 771 771 772 771 772 772 774 775 776 777 777 779 780 782 782 782 783 783 783 785 785 776 773 773 775 775 777 778 780 781 782 783 778 780 774 773 772 764 760 758 759
777 773 769 768 767 767 766 766 767 767 767 768 769 771 772 774 774 776 778 780 780 781 782 782 782 783 779 770 771 772 773 773 774 776 778 778 779 778 778 776 776 779 771 774 761 759 752
775 770 767 763 761 760 760 760 761 761 763 763 764 766 768 770 772 773 775 778 779 779 780 781 782 782 775 766 767 767 771 772 773 774 776 777 778 777 776 782 789 783 783 779 770 756 757
773 769 765 759 754 754 754 754 755 756 757 758 759 761 763 766 768 771 772 775 776 778 778 779 780 784 769 764 763 764 769 771 772 773 774 777 779 781 784 784 782 781 782 778 773 757 758
771 766 761 755 750 746 747 747 748 750 751 753 754 757 759 762 765 768 771 774 778 778 776 768 767 763 757 758 760 762 766 770 773 775 777 775 781 782 785 779 780 780 781 778 763 754 755
768 763 757 752 747 742 740 740 741 742 745 747 749 751 754 758 761 764 768 770 768 771 770 765 762 762 757 756 762 761 765 771 773 774 778 781 770 775 774 777 779 781 783 773 764 756 756
765 759 754 749 743 738 733 730 734 736 738 741 744 747 749 755 758 761 763 766 768 769 768 758 755 755 755 758 757 758 760 764 768 774 774 772 763 761 769 773 775 775 778 772 772 758 749
761 755 750 744 740 736 730 725 726 730 732 736 739 742 746 751 760 756 759 761 766 769 767 754 756 752 751 753 756 752 752 758 762 766 768 766 763 766 769 768 769 774 765 767 765 772 762
758 751 745 740 735 730 727 722 721 722 726 730 733 737 741 744 748 751 753 757 763 769 770 752 752 749 749 754 750 750 749 752 756 756 764 758 754 759 762 755 767 762 765 767 765 768 770
755 748 741 735 730 725 721 718 715 716 720 722 727 732 737 743 746 747 748 757 762 769 767 746 749 750 751 751 747 747 748 753 752 755 756 754 749 751 751 753 760 761 768 769 766 765 763
751 744 737 731 725 719 715 712 711 711 712 716 719 724 731 735 740 745 748 756 764 762 734 743 744 746 748 744 747 748 751 750 750 753 752 756 752 752 752 759 761 766 774 780 768 767 746
748 741 733 726 719 712 708 707 704 704 705 709 713 718 723 729 733 741 746 758 756 729 732 737 741 741 743 740 744 744 747 746 746 754 747 759 767 747 746 746 748 759 763 761 761 737 722
745 738 730 722 715 707 701 699 699 697 700 704 705 713 718 724 730 736 745 748 736 727 728 736 742 740 739 739 741 740 742 738 737 743 754 754 749 729 728 727 739 750 756 738 746 736 728
742 734 726 719 711 702 697 694 694 690 695 700 700 707 712 716 726 733 739 732 729 722 730 737 733 736 732 733 741 739 738 723 727 726 732 741 738 719 726 731 734 731 728 748 749 728 721
739 732 724 716 708 697 693 691 687 686 690 694 697 702 707 711 723 728 729 727 721 719 725 731 729 727 730 731 728 727 721 712 711 715 724 732 744 723 728 724 716 727 734 721 730 732 706
737 730 722 715 705 695 690 687 684 681 686 690 689 694 703 708 716 723 722 718 719 720 724 726 728 724 722 720 724 723 711 707 697 705 722 729 734 723 711 700 696 702 715 714 723 706 689
735 728 720 713 704 693 687 683 681 677 679 680 687 693 703 704 706 714 716 718 719 719 719 720 718 718 712 709 719 710 701 693 699 705 716 727 728 722 696 698 695 698 702 701 711 702 677
732 727 719 710 702 691 687 680 675 672 665 674 682 690 696 701 700 702 710 716 716 715 714 711 707 710 708 704 701 698 697 690 692 694 705 719 717 706 690 684 682 686 692 699 704 691 675
729 724 718 709 701 692 685 678 672 666 663 671 676 682 684 691 698 699 703 705 709 711 708 704 705 701 700 697 691 695 694 688 692 695 707 713 705 698 693 686 677 674 677 689 690 677 679
725 721 716 709 701 692 686 683 673 666 667 671 676 680 684 687 691 698 701 699 699 701 700 694 697 687 691 694 683 687 686 688 690 698 707 709 702 683 667 662 673 671 667 672 679 669 669
723 717 712 705 700 695 688 683 676 669 666 666 672 676 676 678 684 691 688 689 691 699 692 688 688 689 689 683 677 676 679 673 678 688 694 697 693 682 678 669 673 684 668 669 667 663 666
721 715 709 705 700 695 687 675 670 668 665 664 668 674 677 676 678 678 677 681 685 687 685 679 686 688 679 675 671 676 676 680 678 680 681 686 687 681 677 675 689 661 653 656 663 663 665
718 714 708 703 695 685 681 680 675 667 665 666 667 670 672 674 672 673 677 673 680 679 677 678 675 677 677 676 677 682 687 683 684 684 679 680 686 683 691 688 673 662 660 660 666 667 662
714 710 705 701 697 692 685 678 674 668 665 664 666 669 671 675 673 672 674 674 678 677 678 677 679 676 674 675 675 685 681 682 685 683 680 677 678 688 701 700 686 667 660 657 656 676 665
712 707 703 698 693 688 683 677 671 666 663 663 665 669 672 675 671 670 673 671 674 677 677 679 677 675 673 678 677 680 677 677 680 681 685 684 686 697 693 695 687 662 658 656 669 676 665
708 704 699 695 690 684 678 672 667 664 661 661 664 667 671 672 669 669 669 672 674 675 674 676 675 675 675 676 677 671 675 679 682 675 680 682 688 689 694 697 698 659 659 662 669 666 671
704 700 697 692 689 684 678 674 667 664 659 659 664 666 669 671 670 668 668 667 667 667 671 675 668 663 664 669 674 671 672 674 676 676 676 678 672 679 682 675 663 664 664 663 665 669 675
Wind_Speed
21 20 22 20 21 21 22 17 15 14 15 12 10 10 9 8 7 5 5 4 3 3 1 3 3 2 4 5 7 3 6 7 5 11 12 8 5 3 4 5 6 14 14 14 16 18 19
23 22 22 22 21 21 22 20 17 15 13 14 13 11 11 9 8 7 5 5 4 4 3 3 3 3 2 12 9 16 7 4 4 9 12 12 7 7 6 6 11 9 11 16 19 17 12
28 24 23 23 24 22 23 23 19 17 15 13 15 13 12 11 9 7 5 6 4 4 4 4 3 4 5 12 7 3 13 20 12 8 3 10 17 12 5 5 7 7 13 15 17 14 15
29 27 25 23 24 26 25 24 21 19 17 14 14 15 13 13 11 8 7 5 5 6 5 4 3 3 6 8 21 23 7 7 8 8 11 16 13 4 6 3 6 5 6 14 7 12 9
31 30 30 26 25 26 27 26 23 20 18 17 15 15 14 12 12 10 7 6 6 7 7 5 4 4 7 6 16 21 18 9 8 11 14 13 8 4 2 5 4 4 8 7 10 7 7
31 31 32 33 26 28 28 26 23 20 19 19 17 16 16 13 13 11 9 6 6 6 6 6 7 3 6 5 6 14 14 18 6 3 6 5 4 4 0 5 12 13 7 6 7 6 10
32 31 32 34 31 29 28 28 24 22 21 20 19 17 17 16 12 11 10 2 2 1 5 8 8 5 3 1 8 10 17 11 8 5 7 6 7 9 12 14 8 5 8 11 6 9 10
32 32 32 33 28 24 28 29 25 24 23 21 19 18 16 18 13 12 12 3 2 3 5 16 16 16 19 6 4 6 14 8 10 14 7 6 18 12 8 10 10 13 14 20 15 14 11
33 33 33 32 33 34 33 28 26 25 24 21 19 18 17 16 13 13 16 11 3 2 5 6 15 11 14 12 13 8 13 11 11 11 13 17 3 20 14 12 13 15 16 16 15 14 16
36 36 33 32 31 29 27 17 25 27 24 21 19 18 19 16 10 13 8 15 15 3 4 3 5 4 5 4 5 19 22 12 9 17 15 14 20 13 15 18 12 16 13 15 17 11 10
36 36 34 34 32 30 26 21 16 24 26 22 20 20 24 25 9 11 8 13 14 5 5 7 5 2 1 7 7 7 18 12 17 14 10 8 10 19 20 20 12 18 5 11 12 14 14
36 37 35 34 35 28 25 27 23 21 26 23 23 24 27 24 7 12 17 19 8 3 8 6 5 4 3 7 3 1 4 10 2 11 14 15 2 5 14 14 11 2 1 12 8 9 12
37 38 35 34 35 30 23 20 20 23 24 23 26 28 32 23 9 23 26 5 3 4 2 5 4 6 8 6 7 7 4 11 6 7 6 6 15 2 3 3 2 5 4 3 6 6 13
36 37 35 38 37 28 19 17 19 19 21 23 27 30 34 21 20 30 15 2 6 4 4 4 3 7 6 5 6 8 3 8 16 8 2 4 5 13 12 19 9 13 15 7 7 8 8
36 37 35 39 37 38 23 19 20 21 20 21 26 29 19 22 31 32 6 4 7 6 4 5 3 4 5 8 7 9 11 4 5 17 7 5 6 2 8 13 20 10 13 25 6 5 5
37 37 37 36 40 41 14 19 23 14 24 23 16 13 10 35 35 21 4 5 4 4 6 4 7 9 6 7 9 9 8 7 7 15 14 2 7 7 14 13 16 13 15 10 5 5 5
36 38 39 38 46 32 13 17 25 14 23 28 10 4 17 42 28 5 4 5 5 6 8 8 6 5 7 4 9 4 5 6 13 16 19 8 6 4 1 7 15 9 4 8 3 7 4
36 36 38 38 44 35 16 17 20 13 21 27 4 5 23 37 5 3 4 5 4 7 11 9 5 7 5 8 7 5 10 9 10 12 16 10 3 5 9 8 12 10 12 13 7 10 5
35 35 37 37 40 34 27 20 23 18 17 14 5 3 24 19 5 4 2 3 6 7 8 8 9 11 12 6 7 9 6 9 9 9 15 9 4 3 4 3 9 10 12 8 9 13 3
34 34 36 38 38 33 27 25 30 31 17 14 3 4 3 4 2 6 5 4 4 11 14 13 7 12 10 7 13 4 9 7 18 15 16 12 5 7 4 3 6 7 14 14 13 3 1
33 34 34 35 37 39 33 29 32 27 30 9 2 3 3 5 5 6 10 7 5 4 9 9 4 9 9 5 12 9 9 7 12 17 13 7 5 8 13 16 8 8 12 19 15 6 4
32 33 33 33 35 39 30 29 29 24 28 2 4 3 2 5 7 12 9 8 9 6 5 6 9 12 13 8 6 6 7 5 6 11 5 9 5 10 10 7 14 9 14 9 6 4 2
30 32 32 32 34 36 31 28 25 26 6 3 3 2 2 5 7 7 6 12 13 8 9 16 14 9 7 8 11 3 2 7 3 7 9 8 4 5 3 5 7 2 10 5 4 2 5
27 30 31 30 33 35 32 31 27 26 12 4 5 4 3 3 3 5 4 13 15 17 11 8 14 12 3 4 3 5 5 4 6 5 4 5 1 2 3 3 1 5 3 8 13 5 7
27 27 30 29 33 37 34 28 23 26 23 10 6 4 3 3 6 5 9 6 4 5 11 14 4 2 3 3 2 3 1 2 3 4 8 5 4 1 2 3 5 4 4 2 7 7 3
27 27 28 29 31 32 30 28 24 22 22 4 13 6 2 2 4 3 3 4 1 3 1 2 2 3 3 1 2 3 3 3 2 2 4 6 2 2 2 1 2 3 4 2 0 2 4
26 26 27 28 31 32 30 27 24 21 22 5 7 10 4 2 3 2 3 2 4 2 2 0 2 2 0 2 1 3 2 4 4 5 3 4 2 5 2 1 7 4 4 4 3 3 5
25 25 26 27 30 33 31 30 26 23 22 7 6 16 6 2 2 2 2 3 1 2 3 2 3 2 3 4 4 2 3 6 4 5 5 6 5 3 3 1 6 2 2 2 3 3 4
23 24 24 26 29 31 29 28 25 22 22 5 4 16 15 1 2 2 4 6 5 3 3 3 3 3 4 3 2 2 3 3 6 5 4 4 6 5 7 6 1 3 3 2 3 4 3
Wind_Direction
295 295 294 291 290 291 285 282 277 283 279 261 255 252 255 262 273 273 287 292 300 318 315 291 270 230 154 226 248 191 93 66 81 192 202 215 266 244 231 254 314 248 251 251 244 242 259
290 292 291 287 286 281 287 282 274 274 280 262 250 249 246 249 256 261 272 280 277 281 296 272 271 236 218 242 258 240 257 262 124 160 200 218 233 235 269 240 256 286 272 266 254 261 262
334 287 285 286 280 281 281 273 272 265 267 267 247 246 242 240 245 248 265 275 280 277 278 272 263 215 237 229 233 16 239 240 239 262 300 237 237 241 315 305 326 275 277 266 254 252 252
336 329 294 279 280 275 276 271 271 265 259 258 246 245 240 234 235 240 248 259 260 266 264 261 247 208 247 245 256 258 263 255 245 249 258 268 293 288 224 277 320 284 268 254 265 252 251
335 331 325 296 276 275 270 272 267 258 258 253 244 240 238 234 229 231 231 254 277 268 247 221 225 181 263 270 231 242 229 239 226 224 228 243 266 237 260 210 279 252 269 282 269 239 243
328 324 324 326 304 271 265 263 263 255 255 252 244 233 233 228 225 224 215 241 292 275 228 205 250 248 263 239 209 228 222 228 236 319 198 203 223 218 173 189 226 231 231 243 242 239 243
329 328 321 324 313 271 263 259 253 255 255 250 242 236 225 222 221 205 204 226 53 229 215 206 190 214 262 251 192 204 206 213 230 238 217 219 214 210 221 227 227 289 280 280 286 244 225
331 328 323 322 322 320 270 260 252 249 251 246 239 226 225 208 207 197 200 179 221 99 268 231 255 236 249 272 278 211 181 182 201 213 210 255 240 211 214 228 231 245 268 271 288 272 271
332 327 326 315 317 310 313 253 255 247 244 240 233 221 201 198 188 186 197 198 201 283 268 207 227 240 233 232 229 217 178 201 200 204 202 221 213 198 215 222 222 231 233 251 258 299 291
332 330 326 323 314 313 311 278 257 253 241 237 227 213 191 177 177 186 199 223 234 201 270 201 220 266 196 161 260 214 205 188 215 208 205 237 235 239 216 233 213 239 239 257 265 278 260
331 329 325 324 318 310 298 313 278 252 243 231 222 204 188 180 157 160 161 195 191 153 298 153 165 171 101 184 136 216 220 213 216 198 184 214 180 208 222 229 211 252 246 280 273 253 279
330 329 326 325 323 306 296 290 282 269 245 227 216 199 189 183 152 166 137 137 136 124 248 168 149 178 187 195 223 317 192 210 206 233 244 241 234 206 222 229 204 241 342 282 274 269 253
330 331 330 327 325 313 291 273 288 279 243 231 207 197 188 180 178 150 135 128 117 205 167 174 185 184 206 200 213 206 195 204 197 204 207 192 242 189 152 215 211 158 146 253 220 218 242
330 329 332 334 327 307 281 277 289 277 241 229 206 196 189 178 177 154 133 101 201 216 201 124 162 199 207 186 217 213 217 214 217 225 92 172 265 187 190 209 185 194 192 208 200 210 250
331 333 332 338 330 319 296 282 303 271 242 227 203 189 177 176 171 161 143 194 206 195 146 150 118 209 199 211 233 212 227 220 233 203 186 182 250 203 212 198 193 194 206 210 303 283 195
332 333 334 337 333 325 295 288 301 277 227 216 185 173 176 176 170 157 177 219 218 141 130 125 209 193 215 197 195 190 187 207 206 193 197 162 278 222 266 211 195 228 179 179 179 257 165
332 333 334 339 332 331 302 289 306 284 212 196 161 164 165 170 156 178 199 215 209 192 167 189 209 221 223 201 204 207 224 271 203 193 188 181 218 201 334 216 183 187 195 207 239 235 232
335 335 334 337 334 340 335 332 298 322 209 188 144 167 164 152 160 187 189 191 141 191 198 221 247 230 232 206 208 233 218 211 176 202 177 194 212 257 244 246 192 182 182 194 191 222 205
334 336 333 336 335 341 345 323 316 303 244 147 141 110 165 163 173 177 186 169 215 199 205 202 216 215 206 215 215 206 238 225 144 156 165 158 217 274 235 240 166 182 205 213 229 273 234
334 336 334 334 339 345 348 335 338 325 216 153 135 143 145 198 78 179 172 197 217 217 234 214 218 223 237 229 226 202 244 228 168 174 154 151 215 228 258 18 158 189 188 214 236 244 282
331 334 336 334 341 343 346 344 335 337 180 164 124 158 172 158 191 177 177 186 178 233 207 219 258 229 233 237 210 212 202 257 169 164 146 183 278 226 241 244 227 195 207 202 219 251 74
331 334 336 334 341 342 346 338 343 347 184 138 131 161 159 154 178 201 188 194 197 223 212 213 218 206 218 235 237 181 172 177 190 169 146 168 274 310 355 130 194 186 230 201 206 231 218
331 332 336 335 341 340 342 336 339 348 318 139 112 42 183 147 170 173 208 219 203 194 243 242 224 232 259 246 251 152 349 191 133 161 179 181 246 336 354 164 140 315 232 172 261 352 174
330 332 334 334 338 338 340 344 342 342 335 95 132 153 112 162 217 207 263 205 203 206 230 255 219 230 226 320 119 42 57 21 122 291 204 185 247 272 314 42 133 244 145 196 208 213 217
329 332 333 333 337 341 341 339 333 345 344 323 163 136 139 206 202 207 296 182 173 229 259 238 257 169 276 355 124 173 105 282 137 172 243 175 164 358 39 293 282 22 3 90 173 243 207
327 329 332 332 333 337 338 337 333 330 345 193 162 137 114 123 212 101 286 153 65 258 353 241 227 266 234 103 139 174 171 174 199 331 355 118 130 122 33 40 211 243 292 309 286 292 354
327 325 329 327 331 335 337 336 335 329 345 222 173 185 104 171 257 124 270 211 150 157 245 226 172 164 310 130 180 189 160 178 166 178 165 145 145 154 191 333 293 252 305 314 113 243 318
323 325 328 326 331 334 337 338 334 331 332 259 173 187 169 188 247 177 207 163 127 170 196 159 137 199 149 175 195 203 155 207 147 172 180 170 142 165 115 93 281 164 28 130 205 13 63
323 325 326 325 328 332 333 334 329 324 324 244 130 183 203 221 284 241 258 239 214 200 164 196 301 155 180 153 173 112 245 169 150 194 207 194 176 174 182 207 270 27 125 178 146 126 95